Probability
0 0 0 0 0 0 0 0 0 0 0 0 0 0 0 0 0 0 0 0 0 0 0 0 0 0 0 0 0 0 0 0 0 0 0 0 0 0 0 0 0 0 0
0 0 0 0 0 0 0 0 0 0 0 0 0 0 0 0 0 0 0 0 0 0 0 0 0 0 0 0 0 0 0 0 0 0 0 0 0 0 0 0 0 0 0
0 0 0 0 0 0 0 0 0 0 0 0 0 0 0 0 0 0 0 0 0 0 0 0 0 0 0 0 0 0 0 0 0 0 0 0 0 0 0 0 0 0 0
0 0 0 0 0 0 0 0 0 0 0 0 0 0 0 0 0 0 0 0 0 0 0 0 0 0 0 0 0 0 0 0 0 0 0 0 0 0 0 0 0 0 0
0 0 0 0 0 0 0 0 0 0 0 0 0 0 0 0 0 0 0 0 0 0 0 0 0 0 0 0 0 0 0 0 0 0 0 0 0 0 0 0 0 0 0
0 0 0 0 0 0 0 0 0 0 0 0 0 0 0 0 0 0 0 0 0 0 0 0 0 0 0 0 0 0 0 0 0 0 0 0 0 0 0 0 0 0 0
0 0 0 0 0 0 0 0 0 0 0 0 0 0 0 0 0 0 0 0 0 0 0 0 0 0 0 0 0 0 0 0 0 0 0 0 0 0 0 0 0 0 0
0 0 0 0 0 0 0 0 0 0 0 0 0 0 0 0 0 0 0 0 0 0 0 0 0 0 0 0 0 0 0 0 0 0 0 0 0 0 0 0 0 0 0
0 0 0 0 0 0 0 0 0 0 0 0 0 0 0 0 0 0 0 0 0 0 0 0 0 0 0 0 0 0 0 0 0 0 0 0 0 0 0 0 0 0 0
0 0 0 0 0 0 0 0 0 0 0 0 0 0 0 0 0 0 0 0 0 0 0 0 0 0 0 0 0 0 0 0 0 0 0 0 0 0 0 0 0 0 0
0 0 0 0 0 0 0 0 0 0 0 0 0 0 0 0 0 0 0 0 0 0 0 0 0 0 0 0 0 0 0 0 0 0 0 0 0 0 0 0 0 0 0
0 0 0 0 0 0 1 1 0 0 0 0 0 0 0 0 0 0 0 0 0 0 0 0 0 0 0 0 0 0 0 0 0 0 0 0 0 0 0 0 0 0 0
0 0 0 0 0 0 1 2 1 0 0 0 0 0 0 0 0 0 0 0 0 0 0 0 0 0 0 0 0 0 0 0 0 0 0 0 0 0 0 0 0 0 0
0 0 0 0 0 0 1 2 1 0 0 0 0 0 0 0 0 0 0 0 0 0 0 0 0 0 0 0 0 0 0 0 0 0 0 0 0 0 0 0 0 0 0
0 0 0 0 0 0 0 1 1 0 0 0 0 0 0 0 0 0 0 0 0 0 0 0 0 0 0 0 0 0 0 0 0 0 0 0 0 0 0 0 0 0 0
0 0 0 0 0 0 0 0 0 0 0 0 0 0 0 0 0 0 0 0 0 0 0 0 0 0 0 0 0 0 0 0 0 0 0 0 0 0 0 0 1 1 1
0 0 0 0 0 0 0 0 0 0 0 0 0 0 0 0 0 0 0 0 0 0 0 0 0 0 0 0 0 0 0 0 0 0 0 0 0 0 0 0 1 1 1
0 0 0 0 0 0 0 0 0 0 0 0 0 0 0 0 0 0 0 0 0 0 0 0 0 0 0 0 0 0 0 0 0 0 0 0 0 0 0 0 0 0 0
0 0 0 0 0 0 0 0 0 0 0 0 0 0 0 0 0 0 0 0 0 0 0 0 0 0 0 0 0 0 0 0 0 0 1 1 0 0 0 0 0 0 0
0 0 0 0 0 0 0 0 0 0 0 0 0 0 0 0 0 0 0 0 0 0 0 0 0 0 0 0 0 0 0 0 0 0 1 1 0 0 0 0 0 0 0
0 0 0 0 0 0 0 0 0 0 0 0 0 0 0 0 0 0 0 0 0 0 0 0 0 0 0 0 0 0 0 0 0 0 0 0 0 0 0 0 0 0 0
0 0 0 0 0 0 0 0 0 0 0 0 0 0 0 0 0 0 0 0 0 0 0 0 0 0 0 0 0 0 0 0 0 0 0 0 0 0 0 0 0 0 0
0 0 0 0 0 0 0 0 0 0 0 0 0 0 0 0 0 0 0 0 0 0 0 0 0 0 0 0 0 0 0 0 0 0 0 0 0 0 0 0 0 0 0
0 0 0 0 0 0 0 0 0 0 0 0 0 0 0 0 0 0 0 0 0 0 0 0 0 0 0 0 0 0 0 0 0 0 0 0 0 0 0 0 0 0 0
0 0 0 0 0 0 0 0 0 0 0 0 0 0 0 0 0 0 0 0 0 0 0 0 0 0 0 0 0 0 0 0 0 0 0 0 0 0 0 0 0 0 0
0 0 0 0 0 0 0 0 0 0 0 0 0 0 0 0 0 0 0 0 0 0 0 0 0 0 0 0 0 0 0 0 0 0 0 0 0 0 0 0 0 0 0
Wind_Speed
2 2 1 2 2 2 2 1 2 2 2 2 2 1 1 1 1 1 2 1 2 2 2 1 1 1 1 1 1 1 1 1 1 1 0 1 1 1 1 1 3 4 5
1 1 1 1 1 2 2 2 2 2 2 2 2 2 2 1 1 1 2 2 2 2 2 2 2 1 1 1 1 1 1 1 1 1 1 0 1 2 2 2 2 3 3
1 0 0 0 1 1 1 1 2 2 3 2 2 2 2 2 2 2 2 2 3 3 2 2 2 2 2 2 1 1 1 1 1 2 1 1 1 1 1 1 2 1 3
2 1 0 1 1 1 1 1 2 2 3 3 2 2 2 2 2 1 2 3 3 3 3 2 2 2 2 2 2 2 2 2 1 1 2 1 1 1 1 1 1 1 2
2 1 0 1 1 1 1 1 2 2 3 3 3 2 2 2 1 2 3 4 4 3 3 3 3 3 3 2 1 1 1 1 1 2 2 2 2 1 2 1 1 1 1
2 1 1 1 1 1 1 2 2 2 2 3 3 3 3 2 1 1 2 4 4 4 4 3 3 4 5 6 5 4 3 2 2 2 2 2 3 3 2 2 2 1 1
2 1 1 0 1 1 2 2 2 2 2 3 3 3 3 2 2 3 4 4 5 5 4 4 4 3 4 4 6 7 7 8 6 3 3 3 3 3 3 2 2 3 3
2 1 1 1 1 1 2 2 2 2 3 3 3 4 3 3 4 4 5 5 5 5 4 4 4 3 3 3 3 4 5 6 7 6 4 4 3 2 3 3 3 2 1
2 1 1 1 1 2 2 2 2 3 3 3 3 4 4 4 5 5 4 4 4 5 5 4 4 3 3 3 3 4 4 5 7 7 7 6 5 5 4 2 2 2 1
2 2 2 2 2 2 2 2 2 3 4 4 4 4 4 4 5 6 5 3 4 5 4 4 5 4 4 4 4 4 5 4 4 4 5 6 6 6 7 5 4 4 3
2 2 2 2 3 2 2 2 3 3 3 4 5 5 4 5 5 6 6 3 4 4 4 3 3 6 6 6 6 5 6 5 4 4 4 4 4 4 4 5 4 4 4
2 2 3 3 3 2 2 3 3 3 3 4 4 4 3 3 3 5 7 7 6 4 5 3 3 6 7 8 7 7 9 6 3 3 3 4 4 4 4 4 4 4 4
2 3 3 3 2 2 2 3 3 3 2 3 3 3 4 3 3 6 7 8 8 5 5 6 7 9 8 7 9 10 7 4 4 4 4 4 4 4 4 3 3 3 2
3 3 3 3 3 3 2 2 3 3 3 3 3 4 4 4 3 2 3 4 6 6 6 7 9 9 8 7 7 7 6 5 5 5 4 4 3 3 3 3 3 3 2
4 3 3 3 3 3 3 3 4 4 4 5 4 4 4 5 5 6 5 5 4 5 5 5 5 4 5 5 5 5 5 5 6 5 4 3 3 4 3 3 3 3 4
4 4 3 3 3 3 4 4 6 7 9 10 10 9 7 8 9 10 10 11 10 10 7 6 6 6 6 6 6 6 5 5 5 5 5 4 4 5 4 3 3 4 4
4 4 3 3 3 4 4 4 5 6 9 11 11 11 11 11 11 11 11 11 11 9 6 6 7 7 6 6 6 6 6 6 5 5 6 5 5 4 5 4 4 4 4
5 4 4 3 3 4 5 5 5 6 6 5 7 9 10 11 11 11 10 7 6 6 6 6 7 7 6 6 6 6 6 5 5 5 5 5 5 5 5 5 5 5 5
4 3 3 3 4 5 5 5 6 6 6 6 5 5 7 8 9 9 7 5 6 6 6 6 6 6 6 6 6 6 6 6 6 5 5 6 6 5 5 5 6 7 6
3 6 6 5 5 5 5 5 5 6 6 6 6 5 3 4 4 5 5 5 6 6 6 7 6 6 6 5 5 5 5 6 6 6 6 6 6 6 7 7 7 7 6
4 5 8 6 5 5 5 6 6 6 6 6 6 6 7 6 6 6 5 6 6 7 7 6 6 6 6 5 5 5 6 6 6 6 6 6 6 6 6 6 6 7 6
4 4 5 5 5 6 6 6 6 6 7 8 7 7 9 6 6 6 6 6 6 6 6 6 6 5 5 6 5 6 6 5 5 6 6 6 6 6 6 6 7 6 7
4 5 6 6 6 7 7 6 6 7 7 7 7 6 6 6 6 7 7 6 6 6 5 5 6 6 6 6 5 5 6 6 5 5 5 6 6 6 6 7 8 8 8
5 6 6 7 6 6 6 6 7 7 7 7 7 7 6 7 7 7 7 6 6 6 5 5 6 8 9 7 5 5 4 4 4 4 6 6 6 6 6 7 8 9 9
5 6 7 7 6 6 6 7 7 7 7 7 7 7 7 7 7 7 6 5 6 6 7 7 5 6 8 9 7 5 6 6 5 4 4 5 6 7 7 8 8 8 8
6 7 7 6 6 6 6 7 7 7 7 7 7 7 7 7 7 7 6 6 6 6 7 6 7 8 8 7 7 7 7 7 6 6 4 4 5 6 7 7 9 8 9
Wind_Direction
172 190 177 184 196 208 216 218 241 259 258 257 266 285 294 272 252 237 244 257 277 285 282 260 252 260 283 280 247 251 260 166 195 271 296 157 150 153 155 203 173 176 184
169 181 184 176 199 237 234 228 246 257 260 261 258 252 271 278 274 263 262 257 248 260 267 266 255 238 245 263 259 246 249 227 189 219 256 243 190 181 179 211 201 179 175
130 137 159 200 224 253 263 260 271 276 273 273 270 264 261 264 263 269 271 265 253 242 242 246 249 233 238 229 222 233 248 250 213 200 234 232 242 212 186 222 221 198 189
129 146 194 303 302 288 295 287 291 298 298 297 293 286 279 282 287 302 297 283 270 254 237 226 229 219 234 242 230 232 231 238 240 213 213 218 224 230 186 207 228 218 208
120 127 112 317 323 324 324 314 302 297 301 304 303 300 297 292 319 355 327 309 300 282 260 231 218 205 204 216 227 245 253 241 237 216 215 213 214 194 201 203 200 224 223
93 83 66 349 353 345 332 322 307 295 296 305 302 297 292 301 341 305 295 300 300 293 285 262 226 212 209 218 224 219 211 221 234 227 227 217 214 199 193 191 184 173 235
86 53 48 344 345 330 323 315 302 293 285 284 282 282 276 268 250 268 277 280 279 279 281 279 274 235 206 212 225 231 234 233 226 216 227 234 218 203 186 195 196 190 206
58 27 14 2 345 329 306 295 291 295 289 270 269 273 265 254 238 245 270 268 271 271 268 267 269 256 232 223 220 222 229 230 228 224 227 233 223 201 188 192 198 206 238
35 351 343 332 311 299 294 285 280 288 289 284 275 269 266 256 238 237 245 267 271 272 269 270 271 262 252 242 240 243 242 237 224 220 214 218 213 212 190 159 186 178 213
13 343 334 326 304 283 280 286 283 275 270 277 280 270 266 260 248 240 227 252 268 273 267 257 257 257 275 249 238 242 245 245 226 216 220 225 221 218 206 193 192 188 190
346 327 313 307 291 279 282 285 284 279 280 277 278 271 263 261 248 240 231 241 259 276 275 261 248 239 249 259 260 247 240 248 240 221 208 210 207 204 204 205 197 189 189
333 312 298 293 296 308 294 286 285 281 280 280 281 284 275 270 262 252 241 243 261 273 277 271 262 254 252 254 254 255 255 252 241 228 213 207 207 206 202 197 197 191 185
316 305 295 293 294 298 296 293 292 283 277 283 286 288 291 285 268 256 248 251 262 268 276 279 278 277 270 256 248 252 253 241 226 222 218 215 206 197 185 177 178 167 152
300 298 299 302 308 310 296 273 275 276 270 273 279 281 284 282 278 276 271 268 264 264 268 275 276 270 258 256 252 245 234 226 219 220 217 212 195 181 182 178 177 166 151
309 310 311 315 311 298 286 274 271 260 255 255 258 262 270 273 269 276 282 280 275 271 279 273 263 259 247 242 238 230 223 223 227 222 215 208 195 189 191 181 173 167 172
322 321 314 308 304 300 294 292 274 270 274 267 261 262 267 264 269 270 271 273 271 271 277 265 256 250 246 242 237 230 221 219 224 221 217 209 200 193 187 182 173 172 175
313 313 313 313 310 304 299 296 297 292 278 271 268 269 266 269 273 273 274 277 275 269 261 255 252 250 246 243 240 231 224 218 215 221 219 212 201 193 183 182 182 178 179
309 308 306 297 297 297 295 291 287 287 292 284 268 266 272 273 272 272 274 283 279 259 249 252 254 252 248 243 242 237 227 217 213 216 218 210 199 192 188 188 186 184 180
306 301 300 297 291 286 284 284 284 286 287 290 290 282 275 278 277 273 269 260 262 264 259 258 256 254 253 248 243 238 232 222 213 207 213 213 202 192 193 191 187 185 180
295 297 300 292 286 285 284 286 287 288 289 289 287 283 279 281 277 269 256 257 261 264 263 260 258 257 256 252 247 239 237 232 219 212 210 212 206 196 193 190 186 184 186
294 293 294 294 285 285 287 288 288 287 287 286 285 285 281 273 267 266 258 255 259 262 262 262 261 258 256 252 240 238 243 241 229 217 211 208 203 199 192 188 185 180 175
297 295 290 288 288 289 293 293 292 289 290 289 288 287 281 272 269 271 267 261 257 259 260 260 262 257 252 251 242 239 239 244 236 221 212 205 200 197 189 184 181 176 171
290 293 294 290 287 289 290 287 288 286 286 286 287 287 284 277 275 274 273 271 267 265 261 258 261 262 259 250 240 237 238 236 235 230 216 208 202 199 189 183 179 174 172
292 289 288 288 287 285 285 286 288 289 289 289 289 287 285 281 280 280 279 278 277 274 268 263 260 263 264 258 248 238 237 236 229 224 220 208 199 200 192 182 179 175 172
289 286 283 283 285 286 287 288 288 289 290 291 291 291 288 287 284 284 282 280 282 281 281 277 270 268 267 260 250 236 228 224 224 220 221 214 197 193 190 182 177 170 167
279 279 279 278 280 283 286 287 288 290 290 291 293 294 293 292 288 284 283 284 284 283 283 282 274 271 270 265 249 232 220 217 216 212 206 206 194 187 184 178 172 170 167